Location: Newark
(47.5833°N, 8.1500°E)
Time: 06:56:05
(UTC+00:00)

Vanguard 1 - Pass Details

Date: 01 November 2020
Orbit: 650 x 3833 km, 34.2° (Epoch: 29 November)

Event Time Altitude Azimuth Distance (km) Brightness Sun altitude
Rises 08:21:18 0° 186° (S) 6,420 14.8 17.2°
Reaches altitude 10° 08:26:51 10° 172° (S) 5,895 15.1 17.8°
Maximum altitude 08:39:38 22° 131° (SE) 5,707 16.4 19.2°
Drops below altitude 10° 08:54:20 10° 91° (E) 6,936 15.0 20.7°
Sets 09:01:38 0° 79° (E) 7,840 15.0 21.4°
